Weather History for LGAV - August, 2013

Change the Weather History Date:

Sunday, August 25, 2013

  Actual Average (LGEL) Record (LGEL)
Temperature  
Mean Temperature 78 °F -  
Max Temperature 89 °F 89 °F 100 °F (2008)
Min Temperature 66 °F 72 °F 62 °F (1997)
Cooling Degree Days 12    
Growing Degree Days 28 (Base 50)    
Moisture  
Dew Point 51 °F    
Average Humidity 37    
Maximum Humidity 60    
Minimum Humidity 22    
Precipitation  
Precipitation 0.00 in - - ()
Sea Level Pressure  
Sea Level Pressure 29.87 in    
Wind  
Wind Speed 4 mph ()    
Max Wind Speed 12 mph    
Max Gust Speed -    
Visibility 6.2 miles    
Events      
Averages and records for this station are not official NWS values.
T = Trace of Precipitation, MM = Missing Value Source: Averaged Metar Reports

Daily Weather History Graph

Daily Weather History Graph

Search for Another Location

Airport or City:

Trip Planner

Search our weather history database for the weather conditions in past years. The results will help you decide how hot, cold, wet, or windy it might be!

Date:

Astronomy

Aug. 25, 2013 Rise Set
Actual Time 6:48 AM EEST 8:03 PM EEST
Civil Twilight 6:20 AM EEST 8:31 PM EEST
Nautical Twilight 5:48 AM EEST 9:03 PM EEST
Astronomical Twilight 5:13 AM EEST 9:37 PM EEST
Moon 10:29 PM EEST (8/25) 11:24 AM EEST (8/25)
Length of Visible Light 14h 10m
Length of Day
13h 15m
Waning Gibbous, 78% of the Moon is Illuminated
Aug 25
Waning Gibbous
Aug 28
Last Quarter
Sep 5
New
Sep 12
First Quarter
Sep 19
Full

Hourly Weather History & Observations

Time (EEST) Temp. Heat Index Dew Point Humidity Pressure Visibility Wind Dir Wind Speed Gust Speed Precip Events Conditions
12:20 AM 75.2 °F - 50.0 °F 41% 29.89 in - West 3.5 mph - N/A   Clear
12:50 AM 75.2 °F - 50.0 °F 41% 29.89 in - WSW 3.5 mph - N/A   Clear
1:20 AM 75.2 °F - 50.0 °F 41% 29.89 in 6.2 mi West 4.6 mph - N/A   Partly Cloudy
1:50 AM 75.2 °F - 51.8 °F 44% 29.89 in 6.2 mi Variable 1.2 mph - N/A   Partly Cloudy
3:20 AM 69.8 °F - 50.0 °F 49% 29.89 in - Variable 1.2 mph - N/A   Clear
3:50 AM 68.0 °F - 51.8 °F 56% 29.89 in - Calm Calm - N/A   Clear
4:20 AM 66.2 °F - 51.8 °F 60% 29.89 in - WNW 3.5 mph - N/A   Clear
4:50 AM 68.0 °F - 51.8 °F 56% 29.86 in - NW 2.3 mph - N/A   Clear
5:20 AM 66.2 °F - 50.0 °F 56% 29.86 in - Calm Calm - N/A   Clear
5:50 AM 68.0 °F - 51.8 °F 56% 29.86 in - Calm Calm - N/A   Clear
6:20 AM 68.0 °F - 51.8 °F 56% 29.86 in - Calm Calm - N/A   Clear
6:50 AM 69.8 °F - 48.2 °F 46% 29.86 in - Variable 2.3 mph - N/A   Clear
7:20 AM 71.6 °F - 50.0 °F 46% 29.86 in - Calm Calm - N/A   Clear
7:50 AM 71.6 °F - 48.2 °F 43% 29.86 in - Calm Calm - N/A   Clear
8:20 AM 75.2 °F - 50.0 °F 41% 29.86 in - WSW 2.3 mph - N/A   Clear
8:50 AM 77.0 °F - 51.8 °F 41% 29.86 in - Variable 1.2 mph - N/A   Clear
9:20 AM 80.6 °F - 51.8 °F 37% 29.89 in - Variable 1.2 mph - N/A   Clear
9:50 AM 82.4 °F 81.7 °F 55.4 °F 39% 29.89 in - South 4.6 mph - N/A   Clear
10:20 AM 84.2 °F 83.0 °F 55.4 °F 37% 29.89 in - Variable 3.5 mph - N/A   Clear
10:50 AM 84.2 °F 82.8 °F 53.6 °F 35% 29.89 in - NE 5.8 mph - N/A   Clear
11:20 AM 86.0 °F 84.2 °F 53.6 °F 33% 29.89 in - NE 5.8 mph - N/A   Clear
11:50 AM 86.0 °F - 51.8 °F 31% 29.89 in 6.2 mi ENE 6.9 mph - N/A   Partly Cloudy
12:20 PM 87.8 °F - 48.2 °F 25% 29.89 in 6.2 mi East 8.1 mph - N/A   Partly Cloudy
12:50 PM 87.8 °F - 46.4 °F 24% 29.89 in 6.2 mi East 11.5 mph - N/A   Partly Cloudy
1:20 PM 87.8 °F - 48.2 °F 25% 29.89 in 6.2 mi ENE 9.2 mph - N/A   Partly Cloudy
1:50 PM 89.6 °F - 46.4 °F 22% 29.86 in 6.2 mi ENE 8.1 mph - N/A   Scattered Clouds
2:20 PM 89.6 °F - 46.4 °F 22% 29.86 in 6.2 mi ENE 8.1 mph - N/A   Mostly Cloudy
2:50 PM 89.6 °F - 48.2 °F 24% 29.86 in 6.2 mi East 6.9 mph - N/A   Mostly Cloudy
3:20 PM 89.6 °F - 48.2 °F 24% 29.86 in 6.2 mi East 6.9 mph - N/A   Mostly Cloudy
3:50 PM 89.6 °F - 50.0 °F 26% 29.86 in 6.2 mi East 6.9 mph - N/A   Mostly Cloudy
4:20 PM 89.6 °F - 50.0 °F 26% 29.86 in 6.2 mi East 8.1 mph - N/A   Mostly Cloudy
4:50 PM 89.6 °F - 50.0 °F 26% 29.86 in 6.2 mi East 8.1 mph - N/A   Mostly Cloudy
5:20 PM 87.8 °F - 50.0 °F 27% 29.86 in 6.2 mi ESE 8.1 mph - N/A   Mostly Cloudy
5:50 PM 87.8 °F - 48.2 °F 25% 29.86 in 6.2 mi ESE 9.2 mph - N/A   Mostly Cloudy
6:20 PM 86.0 °F - 48.2 °F 27% 29.86 in 6.2 mi East 9.2 mph - N/A   Mostly Cloudy
6:50 PM 86.0 °F - 50.0 °F 29% 29.86 in - East 8.1 mph - N/A   Clear
7:20 PM 86.0 °F - 50.0 °F 29% 29.86 in - East 5.8 mph - N/A   Clear
7:50 PM 84.2 °F - 50.0 °F 30% 29.86 in - Variable 3.5 mph - N/A   Clear
8:20 PM 82.4 °F - 50.0 °F 32% 29.86 in 6.2 mi Variable 2.3 mph - N/A   Scattered Clouds
8:50 PM 80.6 °F 80.3 °F 53.6 °F 39% 29.86 in 6.2 mi SSW 4.6 mph - N/A   Partly Cloudy
9:20 PM 80.6 °F - 51.8 °F 37% 29.89 in 6.2 mi SW 4.6 mph - N/A   Scattered Clouds
9:50 PM 78.8 °F - 53.6 °F 42% 29.89 in 6.2 mi West 2.3 mph - N/A   Scattered Clouds
10:20 PM 78.8 °F - 55.4 °F 44% 29.89 in 6.2 mi WSW 3.5 mph - N/A   Scattered Clouds
10:50 PM 77.0 °F - 51.8 °F 41% 29.89 in 6.2 mi WSW 4.6 mph - N/A   Scattered Clouds
11:20 PM 77.0 °F - 51.8 °F 41% 29.89 in - SSW 2.3 mph - N/A   Clear
11:50 PM 75.2 °F - 50.0 °F 41% 29.86 in - SW 3.5 mph - N/A   Clear